Terminal Aerodrome Forecast
Issued by NWS Portland, OR

Home | Current Version | Previous Version | Text Only | Print | Product List | Glossary On
Versions: 1 2 3 4 5 6 7 8 9 10 11 12 13 14
000
FTUS46 KPQR 272334
TAFSLE
TAF
KSLE 272334Z 2800/2824 35009KT P6SM SKC
     FM280700 34004KT P6SM SKC
     FM281800 36010KT P6SM SKC=

USA.gov is the U.S. government's official web portal to all federal, state and local government web resources and services.